GFSNE_sfc_rhum_024.txt.gz
RH
95 96 97 96 96 96 96 97 99 95 80 83 87 76 86 92 89 90 92 85 90 90 91 91 81 70 68 65 65 68 75 81 78 78 72 67 65 66
94 90 92 94 94 97 95 91 91 98 96 80 76 82 74 51 67 84 86 76 85 86 91 93 90 76 71 67 66 66 64 73 72 80 78 73 68 63
73 75 74 74 78 80 81 75 80 83 86 78 86 65 59 60 54 58 75 82 84 83 85 88 88 82 77 75 72 66 67 71 69 64 61 61 61 62
73 74 71 53 68 70 77 75 73 71 78 81 78 67 60 58 61 63 45 36 60 68 80 83 79 80 83 82 82 80 74 70 67 64 59 53 49 48
75 76 74 71 72 74 76 78 77 65 79 79 77 75 70 66 68 68 64 68 50 56 68 74 81 82 81 87 83 81 79 77 75 74 69 67 64 59
77 77 77 77 77 78 75 80 78 82 80 81 78 76 77 70 75 79 82 78 72 50 61 69 75 73 77 83 86 86 84 81 78 79 79 81 81 78
77 74 69 68 58 59 69 82 97 95 93 85 81 81 78 78 75 80 85 85 80 78 84 79 79 78 76 76 77 84 84 82 81 80 83 86 86 85
81 73 75 67 64 65 69 69 68 81 93 92 90 88 82 82 82 85 89 92 93 84 87 88 84 81 78 77 77 77 82 75 82 84 84 84 84 87
86 82 74 57 70 74 77 74 75 74 82 85 86 87 90 86 86 89 92 94 95 85 92 97 98 91 85 66 73 74 75 76 74 74 77 80 85 86
89 84 80 76 76 73 78 92 88 88 85 81 89 90 91 86 87 84 90 92 89 91 94 98 98 96 93 92 77 76 79 80 80 79 78 79 80 82
79 79 74 75 76 81 86 90 96 84 68 68 68 78 87 90 86 93 97 97 95 80 94 98 93 96 97 94 92 76 81 80 80 82 82 81 82 82
85 73 73 76 84 85 94 97 92 80 81 84 89 86 78 78 74 82 88 92 90 92 83 91 86 96 97 96 90 94 96 85 85 82 83 83 84 90
85 82 82 83 90 82 81 95 94 86 91 94 95 91 87 87 87 86 86 92 93 91 83 85 97 98 96 96 97 97 98 96 98 95 85 86 86 88
92 89 94 81 84 90 93 94 87 96 98 97 96 94 95 95 93 96 95 97 95 90 79 84 98 95 98 100 98 97 97 97 99 98 98 91 91 91
92 91 78 81 84 91 90 93 94 95 96 96 96 96 97 97 96 98 95 94 94 96 91 98 97 93 98 97 97 98 98 97 99 100 98 95 94 97
90 92 90 86 92 95 93 93 94 96 96 96 96 96 96 95 96 97 98 99 98 98 96 93 95 97 98 98 97 98 98 96 99 98 99 97 94 93
94 96 89 89 87 85 88 91 91 94 94 95 96 95 94 95 96 97 96 98 98 98 97 98 98 95 93 90 99 99 99 98 97 98 99 95 89 86
94 98 96 96 95 91 92 90 88 92 93 93 94 94 94 96 96 95 98 98 99 98 95 97 98 98 99 99 96 99 97 95 98 98 99 98 87 95
98 99 98 97 96 92 92 92 94 93 90 93 94 95 95 94 96 97 97 98 97 98 98 98 95 98 97 94 98 86 98 98 99 98 98 99 93 83
97 99 98 97 94 92 91 93 93 92 93 93 94 95 95 95 95 95 96 98 98 98 95 97 97 98 98 98 100 97 83 97 100 100 100 99 97 93
97 98 100 99 97 96 98 96 98 94 95 96 95 94 95 95 94 95 96 99 95 91 96 97 96 95 97 97 97 97 97 86 93 98 98 99 100 98
99 98 98 99 99 98 99 98 97 94 93 94 96 96 96 96 96 96 97 97 99 98 98 97 95 96 95 96 97 99 97 97 93 88 83 88 97 99
99 98 98 100 99 98 98 98 98 99 96 96 96 96 97 98 96 96 98 97 96 96 95 89 90 97 99 97 97 98 97 100 99 99 97 83 83 86

GFSNE_sfc_rhum_027.txt.gz
RH
95 96 96 93 92 97 97 98 93 91 83 94 91 78 89 88 77 90 92 82 86 84 90 91 89 85 73 63 64 65 76 83 77 81 80 75 73 70
91 79 80 85 84 89 88 95 97 93 86 94 82 83 81 50 55 72 82 77 81 81 82 86 92 90 82 77 70 68 72 78 83 81 77 73 69 66
74 75 76 76 79 79 83 83 85 90 90 78 86 79 63 61 58 64 62 66 87 81 79 79 85 91 88 82 82 71 72 79 80 80 76 75 72 70
75 77 77 58 76 79 80 81 80 78 83 83 83 78 67 63 64 66 53 48 68 60 73 81 77 82 86 85 83 80 80 79 79 76 76 70 64 61
76 78 78 77 81 82 80 82 84 74 85 86 81 80 79 74 72 71 70 74 53 54 59 68 78 80 79 75 79 83 82 81 78 76 73 71 67 61
77 79 78 78 80 80 74 86 81 91 92 92 87 79 78 76 80 78 79 79 77 52 53 68 74 72 80 82 81 76 84 85 80 79 78 78 77 70
78 75 74 72 68 64 61 74 81 81 87 89 89 86 81 81 79 78 84 85 83 83 79 81 76 76 74 74 71 79 85 84 85 83 83 83 82 80
89 82 78 75 72 64 68 70 72 82 85 87 87 91 89 84 82 84 88 93 93 85 93 89 83 77 77 74 71 73 77 78 83 82 83 86 87 88
92 88 74 58 70 72 76 74 76 79 84 94 92 89 90 89 86 89 93 95 96 86 90 97 98 91 83 65 71 73 74 75 76 80 85 86 86 87
78 78 81 79 76 72 84 92 81 77 85 79 90 93 91 88 86 82 89 90 90 88 93 95 98 96 93 90 74 71 76 79 79 80 79 81 82 83
75 76 73 77 80 85 94 94 87 79 72 71 70 70 73 85 88 97 96 95 98 95 96 98 92 97 97 93 92 72 76 78 81 81 84 82 83 83
83 76 76 76 85 80 91 96 95 79 76 82 86 83 82 82 76 84 93 96 94 97 86 95 91 95 96 97 98 97 96 83 84 84 82 83 84 94
87 84 84 81 76 86 87 96 96 91 92 94 92 94 91 90 88 87 88 90 92 90 84 86 97 99 97 96 97 98 98 97 98 95 85 86 86 89
93 90 94 74 82 87 90 92 89 94 95 96 96 95 96 96 94 96 97 96 92 87 79 84 98 91 96 99 99 97 97 98 98 98 98 91 87 91
91 80 74 75 79 84 88 89 92 94 95 95 95 95 96 96 95 97 98 97 97 98 94 98 97 97 97 99 98 98 97 97 100 100 100 98 98 93
91 94 91 85 85 86 88 88 92 95 95 95 95 94 95 96 96 97 97 98 99 98 94 94 96 97 97 95 96 98 98 97 99 100 99 100 99 96
95 98 97 91 89 87 86 86 87 88 91 93 93 93 93 94 96 96 97 97 98 97 95 96 98 97 97 98 98 98 98 99 98 97 100 99 98 93
94 100 100 100 98 93 92 91 90 90 90 92 94 93 93 94 95 95 97 97 97 97 97 95 97 98 98 98 97 98 98 98 94 96 98 98 96 96
98 99 100 100 100 94 92 92 93 90 90 92 94 94 94 93 95 95 95 96 97 97 96 98 96 95 93 88 97 86 89 96 98 98 97 97 98 97
98 99 100 100 100 98 94 94 94 91 92 94 95 95 95 96 95 94 95 97 96 93 94 97 98 99 98 98 99 97 84 97 100 100 100 100 98 89
98 98 100 100 99 99 100 99 99 96 96 97 96 96 97 96 94 94 96 96 97 92 96 97 96 93 98 97 95 96 97 86 92 98 98 99 100 98
99 98 97 99 100 99 100 100 99 98 95 94 96 98 98 98 97 96 96 98 98 98 97 95 90 95 98 96 97 100 99 96 90 89 86 85 96 98
98 97 98 100 100 100 99 100 100 100 97 96 97 97 98 100 96 97 98 97 94 93 93 93 90 95 98 98 98 99 98 99 98 96 96 83 82 86

GFSNE_sfc_rhum_030.txt.gz
RH
96 96 96 90 88 88 90 90 96 88 68 64 88 84 82 82 77 75 80 77 85 81 81 82 82 86 87 86 76 67 71 80 77 80 81 78 76 70
94 83 79 83 84 88 87 87 90 91 92 75 63 83 76 64 61 68 69 57 66 83 78 77 82 85 88 89 84 75 66 79 86 82 84 81 75 69
74 75 77 77 80 79 78 80 84 88 89 73 69 68 76 71 58 62 62 66 74 68 78 78 78 83 87 90 88 82 76 78 89 90 85 79 71 67
74 76 76 61 75 75 76 78 78 80 84 87 76 76 75 67 66 66 51 44 62 56 65 70 81 78 78 88 90 87 87 77 84 90 90 81 77 73
77 78 77 78 76 76 75 78 78 71 86 88 83 78 75 73 69 68 66 69 54 51 55 62 71 81 80 82 78 80 80 83 87 86 88 87 78 74
78 79 80 80 78 76 74 77 67 80 77 79 80 84 80 72 74 71 69 70 64 50 54 62 70 69 74 86 79 76 78 79 87 84 82 82 81 77
83 80 81 77 72 69 65 69 73 79 84 80 78 74 76 78 76 71 73 72 70 71 69 72 75 70 68 72 71 78 84 82 82 89 83 80 78 77
86 79 79 70 69 66 69 69 69 79 89 89 82 82 75 75 74 74 78 82 78 73 82 78 72 70 71 68 69 71 73 75 85 89 89 84 82 81
77 74 69 58 72 73 77 74 76 76 89 86 94 86 89 81 78 82 84 84 82 75 79 85 86 84 77 62 69 69 72 72 77 80 87 86 87 88
75 76 76 78 78 74 86 93 83 77 74 72 84 84 81 81 86 89 83 85 81 76 82 92 88 90 86 81 73 70 69 77 77 80 82 87 86 86
73 74 73 75 80 82 86 92 84 76 74 73 73 73 71 72 73 92 94 95 91 80 89 91 89 89 85 86 85 72 70 74 79 79 83 80 82 83
84 76 77 74 74 78 95 94 94 79 79 83 82 81 79 83 82 83 86 93 92 91 77 87 74 84 89 86 85 87 86 78 80 78 80 82 85 84
88 85 82 78 74 75 84 95 95 89 88 86 86 87 88 90 89 85 84 87 88 86 74 77 86 88 84 85 84 86 90 87 88 87 84 85 83 82
91 88 91 70 70 73 84 89 83 91 92 93 92 89 92 91 87 94 95 93 84 76 72 91 93 85 86 92 89 85 88 90 88 87 89 88 89 89
88 79 73 72 75 81 75 76 88 92 93 93 92 89 91 91 90 93 92 96 94 92 94 98 93 93 94 90 87 89 88 91 96 97 98 96 94 93
91 92 94 88 88 89 85 84 88 90 94 93 92 91 90 92 94 96 96 96 96 96 98 99 97 97 94 89 87 90 90 92 94 97 95 97 94 90
95 97 96 94 90 89 87 84 86 83 88 92 92 90 89 89 91 93 92 93 95 94 93 94 98 100 97 95 94 91 92 93 90 91 96 90 92 92
91 100 100 100 100 95 94 91 85 84 86 89 92 90 90 92 91 90 92 93 93 94 92 92 95 95 95 96 94 92 91 92 89 87 91 94 88 87
97 98 100 100 100 96 97 94 93 86 87 89 93 93 93 89 92 91 92 87 88 89 92 92 94 95 92 93 94 89 85 83 94 94 94 94 91 85
96 98 100 100 100 96 97 97 93 91 88 90 94 96 96 94 94 93 91 97 91 83 82 84 91 92 92 94 95 95 87 92 92 95 95 94 94 90
95 96 98 98 98 96 100 100 100 98 94 96 95 94 97 95 93 91 93 96 93 81 82 85 84 90 91 94 90 91 94 89 86 89 93 91 87 88
97 96 95 96 98 98 100 100 100 100 98 92 96 97 97 96 97 97 95 94 87 90 86 84 85 85 92 90 88 98 94 91 86 89 84 79 84 85
98 97 97 98 98 99 96 100 99 100 97 97 95 94 97 98 94 94 94 92 86 87 84 86 79 80 90 90 92 96 95 94 91 86 90 86 84 85

GFSNE_sfc_rhum_033.txt.gz
RH
71 71 69 66 65 61 61 62 69 70 53 42 42 38 40 45 50 50 55 57 69 68 81 75 73 74 81 85 90 82 77 73 81 78 83 79 79 78
65 66 60 59 56 60 58 58 57 62 64 41 38 40 42 37 43 44 48 57 62 69 73 81 74 76 81 84 87 90 82 75 74 85 84 83 82 77
56 56 55 53 52 50 50 47 47 49 54 44 38 40 46 48 46 44 44 46 42 63 73 72 79 80 81 85 88 86 86 82 78 80 90 83 81 75
54 55 55 47 54 51 50 50 49 48 52 54 44 44 47 49 50 53 46 37 37 47 57 62 61 71 82 83 85 89 85 83 84 84 94 84 81 75
57 58 56 57 56 52 53 54 53 54 56 58 58 43 42 52 56 49 48 48 38 47 58 62 57 63 76 83 81 80 88 82 88 91 98 96 92 85
60 60 59 58 56 53 56 61 60 64 57 57 51 50 46 46 56 55 55 47 45 36 45 56 61 58 66 73 85 79 85 79 83 91 92 98 94 86
53 49 50 57 66 61 54 55 58 59 64 62 59 53 48 47 51 51 61 58 56 48 48 42 44 45 50 61 63 76 81 82 82 87 92 94 96 87
47 46 45 54 53 65 67 70 68 66 68 64 58 68 55 53 49 55 58 64 67 46 52 49 47 45 50 49 69 70 71 81 82 84 90 92 87 88
48 48 47 45 58 54 61 66 74 75 84 86 84 65 58 53 51 61 64 61 54 49 59 61 56 60 49 42 66 67 71 72 78 86 86 90 90 89
50 51 51 54 57 62 75 65 59 56 62 77 85 70 62 65 62 58 66 80 60 54 57 84 64 70 63 58 64 67 68 70 75 78 89 91 89 88
55 53 55 56 69 76 73 79 62 54 59 61 68 74 78 80 73 76 78 84 77 58 55 75 67 72 65 70 65 65 68 71 74 77 80 84 89 88
60 53 62 65 74 73 81 81 83 63 60 60 58 58 75 73 86 84 72 73 66 81 48 65 50 53 71 67 67 70 69 76 78 80 78 83 81 65
64 59 56 70 68 69 73 80 87 76 78 71 65 59 59 63 67 81 83 80 69 57 46 52 56 60 65 63 64 65 72 77 73 72 78 80 82 75
74 63 68 68 68 69 67 72 74 76 80 80 77 72 74 74 69 72 81 92 82 71 57 66 75 70 70 72 68 67 73 80 76 75 74 75 86 86
73 66 70 70 68 62 68 72 74 74 81 82 80 76 80 82 85 89 91 88 89 85 83 91 85 82 83 76 77 78 76 78 84 86 88 78 82 82
70 62 76 72 70 73 65 64 67 71 79 84 82 77 78 80 84 88 91 90 88 91 96 98 97 95 89 80 73 76 76 91 81 92 89 90 84 79
75 72 67 68 61 61 63 62 60 60 72 80 82 80 76 74 77 81 82 84 91 89 88 89 98 99 95 97 89 82 79 75 73 81 88 85 85 84
66 74 79 82 75 63 70 67 63 61 68 76 80 78 80 80 77 74 76 83 86 88 87 86 90 92 91 93 91 82 74 75 72 82 78 83 75 76
72 73 84 83 78 62 62 63 64 64 68 75 80 81 83 81 80 76 77 75 75 72 76 88 89 92 88 91 88 93 89 86 92 94 87 88 79 81
70 73 79 80 73 62 60 62 63 67 66 68 82 85 86 84 82 79 76 80 73 66 62 62 74 78 81 88 92 95 84 90 87 88 85 85 81 85
72 69 76 74 73 68 77 80 84 79 78 78 80 83 88 81 80 78 80 81 76 61 63 65 71 86 78 89 96 93 95 86 86 91 86 77 71 73
81 75 72 72 78 77 82 85 82 79 74 69 78 86 86 83 81 82 82 82 72 70 66 66 68 72 82 75 74 92 86 91 83 86 83 85 81 76
87 81 82 83 82 84 77 78 78 84 77 72 73 79 85 83 77 78 78 75 69 70 71 72 70 71 73 74 81 82 88 86 75 70 88 90 89 89

GFSNE_sfc_rhum_036.txt.gz
RH
58 62 48 45 46 44 46 47 64 71 48 36 32 30 28 30 35 37 39 48 60 66 64 60 59 62 65 70 71 78 82 83 82 87 84 82 79 77
52 51 47 43 46 42 39 43 42 45 51 33 30 31 31 25 34 38 38 54 54 66 70 64 66 69 72 74 75 79 83 86 87 84 80 83 83 82
53 51 49 45 42 41 40 39 38 37 42 37 31 34 37 38 36 40 42 40 36 62 67 68 67 66 67 78 78 83 86 83 87 87 80 80 88 81
48 46 45 36 44 42 38 40 40 40 48 50 41 41 41 40 38 42 39 33 36 44 58 56 60 63 67 74 84 83 87 86 84 84 84 89 85 86
47 48 47 46 45 40 40 40 42 44 51 56 50 43 40 38 39 40 44 44 34 49 59 60 63 58 58 69 75 83 82 86 85 91 93 95 96 97
48 46 44 42 43 45 43 44 41 45 49 53 48 47 43 40 38 40 44 42 50 39 49 50 57 53 56 65 72 85 81 87 88 89 95 97 97 94
42 36 39 46 56 56 48 50 52 52 52 55 56 49 46 43 45 41 40 38 42 45 49 42 42 36 39 67 60 69 76 85 87 87 96 98 97 96
38 37 38 44 46 58 62 62 62 61 66 65 67 65 56 50 45 59 52 61 53 41 53 56 50 46 38 37 69 66 69 74 86 88 91 95 95 95
40 40 38 33 48 46 56 63 71 69 79 75 75 65 72 57 52 55 50 51 54 53 51 64 53 56 49 31 60 64 66 71 74 86 93 94 94 96
44 44 44 43 45 58 60 63 58 53 48 52 65 58 54 55 65 68 66 62 54 45 52 68 59 64 56 55 63 62 64 66 70 75 84 92 95 95
46 44 46 45 56 68 69 74 63 53 51 55 58 62 65 68 75 70 73 71 77 56 55 63 60 67 65 64 60 68 65 67 73 72 76 86 92 95
50 45 55 53 65 68 74 73 80 60 51 51 53 52 53 52 78 73 69 78 68 62 45 59 47 52 66 57 56 61 63 74 75 72 73 79 87 80
56 51 49 60 64 66 67 71 74 61 64 59 60 56 52 53 56 57 72 86 76 62 45 51 48 50 57 60 62 62 62 68 66 66 77 76 82 79
68 57 64 62 66 65 63 69 68 72 69 74 75 69 70 73 72 75 82 77 73 67 59 63 63 60 69 71 60 61 66 66 66 68 68 68 78 80
69 67 66 63 60 54 56 63 64 64 69 77 79 71 72 74 75 86 90 93 82 77 68 75 76 73 74 73 79 63 68 70 75 73 72 66 64 62
65 61 65 72 62 56 54 52 56 60 67 76 74 72 69 70 76 80 89 85 84 94 79 80 89 90 84 70 65 74 61 88 69 80 75 74 64 62
78 73 64 61 56 49 53 53 54 50 56 69 74 70 71 69 70 72 75 79 89 85 91 86 92 91 86 99 86 66 66 73 74 78 81 79 78 77
68 72 76 79 72 58 59 57 56 54 51 60 68 65 69 74 74 71 70 76 81 84 86 87 94 96 98 92 94 92 67 69 73 77 69 88 78 77
74 70 80 80 77 58 54 54 56 57 60 55 64 68 69 66 72 76 74 71 73 68 67 76 87 93 82 90 82 91 96 75 83 92 74 82 72 90
72 72 76 75 68 57 54 55 58 65 63 60 66 72 75 70 69 67 72 79 70 61 59 55 67 74 82 90 96 96 85 94 89 95 84 85 87 85
68 63 70 68 66 61 71 75 76 75 76 74 70 70 76 70 67 64 66 65 65 54 58 61 64 78 71 77 98 95 94 80 87 97 76 79 77 71
74 68 65 66 71 71 78 80 78 76 73 66 70 74 76 72 69 68 68 69 60 61 57 64 63 65 74 74 77 92 82 88 83 83 84 88 89 90
83 76 76 76 76 78 70 75 72 80 72 67 67 68 75 74 65 65 67 62 56 59 59 66 64 64 65 64 73 76 89 85 81 81 89 88 87 88